| time (UTC) | temp F | wind direction | speed knots | gust knots | rain 1hr in | rain 24hr in | rain mn in | humidity % | barometer mb |
| 20260507153720 | 62 | 13 | 8.7 | 13.0 | 0.00 | 0.00 | 0.00 | 30 | 1013.5 |
| 20260507153242 | 62 | 338 | 2.6 | 13.0 | 0.00 | 0.00 | 0.00 | 31 | 1013.5 |
| 20260507152821 | 62 | 317 | 8.7 | 13.0 | 0.00 | 0.00 | 0.00 | 30 | 1013.5 |
| 20260507152342 | 61 | 355 | 4.3 | 13.0 | 0.00 | 0.00 | 0.00 | 31 | 1013.5 |
| 20260507151922 | 61 | 294 | 9.6 | 13.0 | 0.00 | 0.00 | 0.00 | 31 | 1013.9 |
| 20260507151420 | 60 | 342 | 7.0 | 13.9 | 0.00 | 0.00 | 0.00 | 32 | 1013.5 |
| 20260507150919 | 60 | 355 | 4.3 | 13.9 | 0.00 | 0.00 | 0.00 | 32 | 1013.5 |
| 20260507150438 | 60 | 329 | 8.7 | 12.2 | 0.00 | 0.00 | 0.00 | 32 | 1013.5 |
| 20260507150019 | 60 | 5 | 7.8 | 13.0 | 0.00 | 0.00 | 0.00 | 32 | 1013.5 |
| 20260507145541 | 60 | 309 | 6.1 | 13.0 | 0.00 | 0.00 | 0.00 | 32 | 1013.5 |
| 20260507145119 | 60 | 360 | 9.6 | 13.0 | 0.00 | 0.00 | 0.00 | 34 | 1013.5 |
| 20260507144640 | 59 | 337 | 3.5 | 13.9 | 0.00 | 0.00 | 0.00 | 33 | 1013.5 |
| 20260507144144 | 59 | 322 | 7.0 | 13.9 | 0.00 | 0.00 | 0.00 | 34 | 1013.5 |
| 20260507143718 | 59 | 339 | 4.3 | 12.2 | 0.00 | 0.00 | 0.00 | 34 | 1013.5 |
| 20260507143221 | 58 | 321 | 8.7 | 12.2 | 0.00 | 0.00 | 0.00 | 35 | 1013.5 |
| 20260507142721 | 58 | 348 | 11.3 | 12.2 | 0.00 | 0.00 | 0.00 | 36 | 1013.5 |
| 20260507142241 | 58 | 334 | 7.0 | 11.3 | 0.00 | 0.00 | 0.00 | 36 | 1013.5 |
| 20260507141821 | 58 | 335 | 7.0 | 11.3 | 0.00 | 0.00 | 0.00 | 37 | 1013.5 |
| 20260507141337 | 58 | 327 | 7.0 | 11.3 | 0.00 | 0.00 | 0.00 | 37 | 1013.5 |
| 20260507140918 | 57 | 360 | 5.2 | 11.3 | 0.00 | 0.00 | 0.00 | 38 | 1013.9 |
| 20260507140438 | 57 | 325 | 7.8 | 12.2 | 0.00 | 0.00 | 0.00 | 40 | 1013.5 |
| 20260507140017 | 56 | 328 | 5.2 | 12.2 | 0.00 | 0.00 | 0.00 | 39 | 1013.5 |
| 20260507135542 | 56 | 328 | 7.8 | 11.3 | 0.00 | 0.00 | 0.00 | 42 | 1013.5 |
| 20260507135117 | 55 | 341 | 7.8 | 11.3 | 0.00 | 0.00 | 0.00 | 43 | 1013.5 |
| 20260507134640 | 54 | 315 | 8.7 | 12.2 | 0.00 | 0.00 | 0.00 | 44 | 1013.5 |
| 20260507134216 | 54 | 321 | 7.8 | 12.2 | 0.00 | 0.00 | 0.00 | 45 | 1013.5 |
| 20260507133718 | 53 | 327 | 9.6 | 11.3 | 0.00 | 0.00 | 0.00 | 47 | 1013.5 |
| 20260507133218 | 53 | 288 | 4.3 | 10.4 | 0.00 | 0.00 | 0.00 | 49 | 1013.5 |
| 20260507132718 | 52 | 309 | 7.0 | 10.4 | 0.00 | 0.00 | 0.00 | 50 | 1013.5 |
| 20260507132236 | 51 | 291 | 6.1 | 10.4 | 0.00 | 0.00 | 0.00 | 52 | 1013.2 |
| 20260507131815 | 50 | 299 | 8.7 | 10.4 | 0.00 | 0.00 | 0.00 | 54 | 1013.2 |
| 20260507131337 | 48 | 292 | 7.8 | 9.6 | 0.00 | 0.00 | 0.00 | 56 | 1013.5 |
| 20260507130916 | 47 | 282 | 6.1 | 8.7 | 0.00 | 0.00 | 0.00 | 61 | 1013.2 |
| 20260507130440 | 45 | 229 | 1.7 | 3.5 | 0.00 | 0.00 | 0.00 | 65 | 1013.2 |
| 20260507125944 | 44 | 227 | 2.6 | 2.6 | 0.00 | 0.00 | 0.00 | 69 | 1013.2 |
| 20260507125516 | 43 | 221 | 0.0 | 1.7 | 0.00 | 0.00 | 0.00 | 71 | 1013.2 |
| 20260507125116 | 42 | 220 | 0.9 | 1.7 | 0.00 | 0.00 | 0.00 | 73 | 1012.9 |
| 20260507124640 | 41 | 229 | 0.0 | 2.6 | 0.00 | 0.00 | 0.00 | 74 | 1012.9 |
| 20260507124140 | 40 | 229 | 0.0 | 2.6 | 0.00 | 0.00 | 0.00 | 75 | 1012.9 |
| 20260507123716 | 39 | 229 | 1.7 | 2.6 | 0.00 | 0.00 | 0.00 | 77 | 1012.9 |
| 20260507123242 | 38 | 224 | 0.0 | 3.5 | 0.00 | 0.00 | 0.00 | 77 | 1012.9 |
| 20260507122813 | 38 | 224 | 1.7 | 3.5 | 0.00 | 0.00 | 0.00 | 77 | 1012.9 |
| 20260507122341 | 37 | 224 | 0.9 | 3.5 | 0.00 | 0.00 | 0.00 | 77 | 1012.9 |
| 20260507121915 | 37 | 224 | 2.6 | 3.5 | 0.00 | 0.00 | 0.00 | 77 | 1012.5 |
| 20260507121442 | 37 | 225 | 2.6 | 3.5 | 0.00 | 0.00 | 0.00 | 77 | 1012.5 |
| 20260507121013 | 37 | 225 | 2.6 | 2.6 | 0.00 | 0.00 | 0.00 | 77 | 1012.5 |
| 20260507120544 | 36 | 225 | 1.7 | 2.6 | 0.00 | 0.00 | 0.00 | 77 | 1012.5 |
| 20260507120114 | 36 | 225 | 0.9 | 2.6 | 0.00 | 0.00 | 0.00 | 76 | 1012.5 |
| 20260507115637 | 36 | 225 | 1.7 | 2.6 | 0.00 | 0.00 | 0.00 | 75 | 1012.5 |
| 20260507115212 | 37 | 225 | 1.7 | 1.7 | 0.00 | 0.00 | 0.00 | 72 | 1012.5 |
| 20260507114742 | 38 | 229 | 1.7 | 1.7 | 0.00 | 0.00 | 0.00 | 70 | 1012.5 |
| 20260507114239 | 39 | 229 | 0.0 | 2.6 | 0.00 | 0.00 | 0.00 | 70 | 1012.5 |
| 20260507113839 | 39 | 229 | 0.9 | 2.6 | 0.00 | 0.00 | 0.00 | 69 | 1012.5 |
| 20260507113413 | 40 | 229 | 0.9 | 2.6 | 0.00 | 0.00 | 0.00 | 67 | 1012.5 |
| 20260507112938 | 41 | 225 | 1.7 | 6.1 | 0.00 | 0.00 | 0.00 | 66 | 1012.5 |
| 20260507112512 | 41 | 229 | 1.7 | 7.8 | 0.00 | 0.00 | 0.00 | 66 | 1012.5 |
| 20260507112039 | 41 | 244 | 4.3 | 7.8 | 0.00 | 0.00 | 0.00 | 67 | 1012.2 |
| 20260507111614 | 41 | 267 | 6.1 | 8.7 | 0.00 | 0.00 | 0.00 | 69 | 1012.2 |
| 20260507111113 | 40 | 266 | 3.5 | 8.7 | 0.00 | 0.00 | 0.00 | 71 | 1012.2 |
| 20260507110641 | 38 | 238 | 4.3 | 7.8 | 0.00 | 0.00 | 0.00 | 72 | 1012.2 |
| 20260507110248 | 38 | 242 | 2.6 | 5.2 | 0.00 | 0.00 | 0.00 | 72 | 1012.2 |
| 20260507105813 | 38 | 232 | 3.5 | 7.0 | 0.00 | 0.00 | 0.00 | 72 | 1012.2 |
| 20260507105338 | 38 | 238 | 3.5 | 7.0 | 0.00 | 0.00 | 0.00 | 72 | 1012.2 |
| 20260507104913 | 37 | 236 | 3.5 | 7.0 | 0.00 | 0.00 | 0.00 | 73 | 1012.2 |
| 20260507104414 | 37 | 237 | 2.6 | 6.1 | 0.00 | 0.00 | 0.00 | 73 | 1012.2 |
| 20260507104014 | 37 | 244 | 4.3 | 6.1 | 0.00 | 0.00 | 0.00 | 72 | 1012.2 |
| 20260507103541 | 37 | 261 | 6.1 | 7.0 | 0.00 | 0.00 | 0.00 | 72 | 1012.2 |
| 20260507103114 | 37 | 263 | 3.5 | 7.0 | 0.00 | 0.00 | 0.00 | 72 | 1012.2 |
| 20260507102642 | 37 | 256 | 3.5 | 7.0 | 0.00 | 0.00 | 0.00 | 71 | 1012.5 |
| 20260507102212 | 37 | 264 | 3.5 | 7.8 | 0.00 | 0.00 | 0.00 | 71 | 1012.5 |
| 20260507101738 | 37 | 253 | 3.5 | 7.8 | 0.00 | 0.00 | 0.00 | 71 | 1012.5 |
| 20260507101311 | 37 | 260 | 2.6 | 7.0 | 0.00 | 0.00 | 0.00 | 71 | 1012.5 |
| 20260507100841 | 37 | 267 | 5.2 | 8.7 | 0.00 | 0.00 | 0.00 | 72 | 1012.5 |
| 20260507100415 | 37 | 277 | 7.8 | 8.7 | 0.00 | 0.00 | 0.00 | 72 | 1012.5 |
| 20260507095942 | 36 | 243 | 7.0 | 7.8 | 0.00 | 0.00 | 0.00 | 73 | 1012.5 |
| 20260507095412 | 36 | 248 | 3.5 | 7.8 | 0.00 | 0.00 | 0.00 | 73 | 1012.5 |
| 20260507094942 | 36 | 246 | 6.1 | 7.8 | 0.00 | 0.00 | 0.00 | 74 | 1012.9 |
| 20260507094437 | 36 | 259 | 3.5 | 7.8 | 0.00 | 0.00 | 0.00 | 74 | 1012.9 |
| 20260507094014 | 36 | 239 | 4.3 | 7.0 | 0.00 | 0.00 | 0.00 | 75 | 1012.5 |
| 20260507093512 | 36 | 253 | 6.1 | 7.0 | 0.00 | 0.00 | 0.00 | 75 | 1012.5 |
| 20260507093013 | 35 | 243 | 7.0 | 7.0 | 0.00 | 0.00 | 0.00 | 74 | 1012.9 |
| 20260507092539 | 36 | 246 | 3.5 | 7.0 | 0.00 | 0.00 | 0.00 | 74 | 1012.9 |
| 20260507092114 | 36 | 278 | 6.1 | 7.0 | 0.00 | 0.00 | 0.00 | 74 | 1012.9 |
| 20260507091637 | 36 | 254 | 2.6 | 6.1 | 0.00 | 0.00 | 0.00 | 73 | 1012.9 |
| 20260507091212 | 36 | 263 | 3.5 | 6.1 | 0.00 | 0.00 | 0.00 | 73 | 1012.9 |
| 20260507090738 | 36 | 282 | 3.5 | 7.0 | 0.00 | 0.00 | 0.00 | 72 | 1012.9 |
| 20260507090313 | 36 | 276 | 3.5 | 7.0 | 0.00 | 0.00 | 0.00 | 72 | 1012.9 |
| 20260507085837 | 37 | 296 | 3.5 | 7.0 | 0.00 | 0.00 | 0.00 | 71 | 1013.2 |
| 20260507085411 | 38 | 284 | 5.2 | 7.8 | 0.00 | 0.00 | 0.00 | 71 | 1012.9 |
| 20260507084939 | 38 | 269 | 6.1 | 9.6 | 0.00 | 0.00 | 0.00 | 71 | 1013.2 |
| 20260507084511 | 38 | 263 | 5.2 | 9.6 | 0.00 | 0.00 | 0.00 | 71 | 1012.9 |
| 20260507084037 | 38 | 265 | 7.0 | 9.6 | 0.00 | 0.00 | 0.00 | 72 | 1012.9 |
| 20260507083614 | 38 | 254 | 9.6 | 9.6 | 0.00 | 0.00 | 0.00 | 73 | 1012.9 |
| 20260507083141 | 37 | 242 | 7.0 | 9.6 | 0.00 | 0.00 | 0.00 | 74 | 1012.9 |
| 20260507082712 | 37 | 232 | 5.2 | 9.6 | 0.00 | 0.00 | 0.00 | 75 | 1013.2 |
| 20260507082242 | 37 | 243 | 7.0 | 9.6 | 0.00 | 0.00 | 0.00 | 76 | 1013.2 |
| 20260507081810 | 37 | 240 | 7.0 | 9.6 | 0.00 | 0.00 | 0.00 | 76 | 1013.2 |
| 20260507081337 | 37 | 239 | 5.2 | 8.7 | 0.00 | 0.00 | 0.00 | 77 | 1013.2 |
| 20260507080914 | 37 | 240 | 3.5 | 9.6 | 0.00 | 0.00 | 0.00 | 76 | 1013.2 |
| 20260507080443 | 37 | 251 | 7.0 | 9.6 | 0.00 | 0.00 | 0.00 | 76 | 1013.2 |
| 20260507080014 | 37 | 254 | 6.1 | 8.7 | 0.00 | 0.00 | 0.00 | 76 | 1013.2 |
| 20260507075540 | 37 | 247 | 7.0 | 9.6 | 0.00 | 0.00 | 0.00 | 76 | 1013.5 |
| 20260507075112 | 37 | 236 | 7.8 | 8.7 | 0.00 | 0.00 | 0.00 | 77 | 1013.5 |
| 20260507074642 | 37 | 250 | 4.3 | 8.7 | 0.00 | 0.00 | 0.00 | 77 | 1013.5 |
| 20260507074211 | 37 | 257 | 6.1 | 8.7 | 0.00 | 0.00 | 0.00 | 77 | 1013.5 |
| 20260507073739 | 37 | 241 | 4.3 | 8.7 | 0.00 | 0.00 | 0.00 | 77 | 1013.9 |
| 20260507073314 | 36 | 224 | 5.2 | 7.8 | 0.00 | 0.00 | 0.00 | 78 | 1013.9 |
| 20260507072842 | 36 | 238 | 2.6 | 7.0 | 0.00 | 0.00 | 0.00 | 77 | 1013.9 |
| 20260507072412 | 36 | 234 | 4.3 | 7.8 | 0.00 | 0.00 | 0.00 | 77 | 1013.9 |
| 20260507071939 | 37 | 240 | 3.5 | 7.8 | 0.00 | 0.00 | 0.00 | 76 | 1013.9 |
| 20260507071510 | 37 | 238 | 3.5 | 9.6 | 0.00 | 0.00 | 0.00 | 75 | 1013.9 |
| 20260507070942 | 38 | 240 | 5.2 | 9.6 | 0.00 | 0.00 | 0.00 | 74 | 1013.9 |
| 20260507070413 | 38 | 234 | 4.3 | 9.6 | 0.00 | 0.00 | 0.00 | 74 | 1013.9 |
| 20260507065913 | 38 | 250 | 6.1 | 8.7 | 0.00 | 0.00 | 0.00 | 74 | 1014.2 |
| 20260507065438 | 38 | 254 | 4.3 | 10.4 | 0.00 | 0.00 | 0.00 | 74 | 1014.2 |
| 20260507065036 | 38 | 253 | 4.3 | 10.4 | 0.00 | 0.00 | 0.00 | 74 | 1014.2 |
| 20260507064612 | 38 | 254 | 7.8 | 8.7 | 0.00 | 0.00 | 0.00 | 74 | 1014.2 |
| 20260507064117 | 38 | 226 | 5.2 | 8.7 | 0.00 | 0.00 | 0.00 | 73 | 1014.2 |
| 20260507063712 | 38 | 229 | 7.8 | 8.7 | 0.00 | 0.00 | 0.00 | 74 | 1014.2 |
| 20260507063242 | 38 | 239 | 7.0 | 8.7 | 0.00 | 0.00 | 0.00 | 73 | 1014.2 |
| 20260507062737 | 38 | 227 | 4.3 | 7.8 | 0.00 | 0.00 | 0.00 | 72 | 1014.2 |
| 20260507062314 | 38 | 229 | 5.2 | 7.8 | 0.00 | 0.00 | 0.00 | 72 | 1014.2 |
| 20260507061840 | 38 | 216 | 3.5 | 8.7 | 0.00 | 0.00 | 0.00 | 71 | 1014.2 |
| 20260507061414 | 38 | 222 | 2.6 | 8.7 | 0.00 | 0.00 | 0.00 | 71 | 1014.6 |
| 20260507060938 | 38 | 240 | 7.0 | 7.8 | 0.00 | 0.00 | 0.00 | 72 | 1014.6 |
| 20260507060514 | 38 | 240 | 3.5 | 7.0 | 0.00 | 0.00 | 0.00 | 72 | 1014.6 |
| 20260507060012 | 38 | 221 | 3.5 | 7.8 | 0.00 | 0.00 | 0.00 | 72 | 1014.6 |
| 20260507055512 | 38 | 230 | 6.1 | 7.0 | 0.00 | 0.00 | 0.00 | 71 | 1014.6 |
| 20260507055036 | 38 | 227 | 3.5 | 5.2 | 0.00 | 0.00 | 0.00 | 70 | 1014.6 |
| 20260507054612 | 38 | 221 | 3.5 | 5.2 | 0.00 | 0.00 | 0.00 | 70 | 1014.6 |
| 20260507054112 | 38 | 231 | 2.6 | 5.2 | 0.00 | 0.00 | 0.00 | 69 | 1014.9 |
| 20260507053711 | 39 | 210 | 2.6 | 6.1 | 0.00 | 0.00 | 0.00 | 68 | 1014.9 |
| 20260507053242 | 39 | 203 | 1.7 | 6.1 | 0.00 | 0.00 | 0.00 | 68 | 1014.9 |
| 20260507052742 | 39 | 198 | 3.5 | 5.2 | 0.00 | 0.00 | 0.00 | 68 | 1014.9 |
| 20260507052337 | 39 | 193 | 3.5 | 6.1 | 0.00 | 0.00 | 0.00 | 67 | 1014.9 |
| 20260507051913 | 40 | 211 | 1.7 | 7.0 | 0.00 | 0.00 | 0.00 | 67 | 1014.9 |
| 20260507051412 | 40 | 200 | 3.5 | 7.0 | 0.00 | 0.00 | 0.00 | 67 | 1014.9 |
| 20260507050911 | 40 | 200 | 1.7 | 5.2 | 0.00 | 0.00 | 0.00 | 66 | 1015.2 |
| 20260507050440 | 40 | 209 | 4.3 | 7.0 | 0.00 | 0.00 | 0.00 | 66 | 1015.2 |
| 20260507045937 | 40 | 198 | 3.5 | 7.0 | 0.00 | 0.00 | 0.00 | 66 | 1015.2 |
| 20260507045513 | 40 | 206 | 5.2 | 6.1 | 0.00 | 0.00 | 0.00 | 65 | 1015.2 |
| 20260507044930 | 40 | 204 | 2.6 | 6.1 | 0.00 | 0.00 | 0.00 | 65 | 1015.2 |
| 20260507044431 | 40 | 199 | 2.6 | 5.2 | 0.00 | 0.00 | 0.00 | 65 | 1015.2 |
| 20260507043942 | 40 | 225 | 3.5 | 6.1 | 0.00 | 0.00 | 0.00 | 65 | 1015.6 |
| 20260507043533 | 41 | 193 | 3.5 | 6.1 | 0.00 | 0.00 | 0.00 | 64 | 1015.6 |
| 20260507043029 | 41 | 191 | 4.3 | 6.1 | 0.00 | 0.00 | 0.00 | 64 | 1015.6 |
| 20260507042529 | 41 | 202 | 2.6 | 6.1 | 0.00 | 0.00 | 0.00 | 64 | 1015.6 |
| 20260507042035 | 41 | 184 | 2.6 | 7.0 | 0.00 | 0.00 | 0.00 | 63 | 1015.6 |
| 20260507041630 | 41 | 188 | 5.2 | 7.8 | 0.00 | 0.00 | 0.00 | 62 | 1015.6 |
| 20260507041129 | 42 | 203 | 2.6 | 7.8 | 0.00 | 0.00 | 0.00 | 62 | 1015.9 |
| 20260507040628 | 42 | 211 | 7.0 | 7.8 | 0.00 | 0.00 | 0.00 | 61 | 1015.9 |
| 20260507040128 | 42 | 195 | 2.6 | 7.8 | 0.00 | 0.00 | 0.00 | 60 | 1015.9 |
| 20260507035729 | 42 | 194 | 6.1 | 8.7 | 0.00 | 0.00 | 0.00 | 59 | 1015.9 |
| 20260507035228 | 42 | 218 | 6.1 | 8.7 | 0.00 | 0.00 | 0.00 | 58 | 1015.9 |
| 20260507034827 | 42 | 193 | 5.2 | 7.8 | 0.00 | 0.00 | 0.00 | 57 | 1015.9 |
| 20260507034328 | 42 | 205 | 5.2 | 8.7 | 0.00 | 0.00 | 0.00 | 56 | 1016.3 |
| 20260507033827 | 42 | 207 | 7.0 | 8.7 | 0.00 | 0.00 | 0.00 | 55 | 1015.9 |
| 20260507033340 | 42 | 189 | 5.2 | 8.7 | 0.00 | 0.00 | 0.00 | 54 | 1015.9 |
| 20260507032927 | 42 | 196 | 5.2 | 8.7 | 0.00 | 0.00 | 0.00 | 54 | 1016.3 |
| 20260507032426 | 42 | 192 | 6.1 | 7.0 | 0.00 | 0.00 | 0.00 | 53 | 1016.3 |
| 20260507031928 | 42 | 193 | 1.7 | 7.0 | 0.00 | 0.00 | 0.00 | 52 | 1016.3 |
| 20260507031428 | 42 | 193 | 2.6 | 5.2 | 0.00 | 0.00 | 0.00 | 51 | 1016.3 |
| 20260507030927 | 42 | 193 | 2.6 | 5.2 | 0.00 | 0.00 | 0.00 | 51 | 1016.3 |
| 20260507030426 | 43 | 194 | 2.6 | 6.1 | 0.00 | 0.00 | 0.00 | 50 | 1016.3 |
| 20260507030029 | 43 | 195 | 3.5 | 6.1 | 0.00 | 0.00 | 0.00 | 49 | 1016.3 |
| 20260507025526 | 44 | 200 | 0.9 | 3.5 | 0.00 | 0.00 | 0.00 | 47 | 1016.3 |
| 20260507025127 | 44 | 209 | 1.7 | 4.3 | 0.00 | 0.00 | 0.00 | 47 | 1016.3 |
| 20260507024641 | 45 | 207 | 2.6 | 4.3 | 0.00 | 0.00 | 0.00 | 46 | 1016.3 |
| 20260507024225 | 45 | 221 | 1.7 | 4.3 | 0.00 | 0.00 | 0.00 | 45 | 1016.3 |
| 20260507023739 | 45 | 198 | 2.6 | 3.5 | 0.00 | 0.00 | 0.00 | 44 | 1016.3 |
| 20260507023325 | 46 | 205 | 2.6 | 3.5 | 0.00 | 0.00 | 0.00 | 43 | 1016.3 |
| 20260507022825 | 46 | 206 | 0.0 | 3.5 | 0.00 | 0.00 | 0.00 | 43 | 1016.3 |
| 20260507022326 | 46 | 207 | 1.7 | 4.3 | 0.00 | 0.00 | 0.00 | 42 | 1016.3 |
| 20260507021839 | 47 | 209 | 1.7 | 5.2 | 0.00 | 0.00 | 0.00 | 42 | 1016.6 |
| 20260507021424 | 47 | 210 | 2.6 | 5.2 | 0.00 | 0.00 | 0.00 | 41 | 1016.6 |
| 20260507020939 | 48 | 219 | 3.5 | 6.1 | 0.00 | 0.00 | 0.00 | 40 | 1016.6 |
| 20260507020524 | 48 | 217 | 3.5 | 7.0 | 0.00 | 0.00 | 0.00 | 39 | 1016.6 |
| 20260507020027 | 49 | 227 | 6.1 | 10.4 | 0.00 | 0.00 | 0.00 | 38 | 1016.6 |
| 20260507015524 | 49 | 223 | 4.3 | 10.4 | 0.00 | 0.00 | 0.00 | 37 | 1016.6 |
| 20260507015040 | 50 | 222 | 4.3 | 7.0 | 0.00 | 0.00 | 0.00 | 36 | 1016.6 |
| 20260507014626 | 50 | 227 | 3.5 | 8.7 | 0.00 | 0.00 | 0.00 | 35 | 1016.6 |
| 20260507014139 | 51 | 224 | 4.3 | 8.7 | 0.00 | 0.00 | 0.00 | 35 | 1016.6 |
| 20260507013722 | 51 | 242 | 7.0 | 10.4 | 0.00 | 0.00 | 0.00 | 34 | 1016.6 |
| 20260507013239 | 52 | 229 | 4.3 | 10.4 | 0.00 | 0.00 | 0.00 | 33 | 1016.6 |
| 20260507012823 | 52 | 227 | 7.0 | 10.4 | 0.00 | 0.00 | 0.00 | 32 | 1016.9 |
| 20260507012342 | 52 | 230 | 6.1 | 11.3 | 0.00 | 0.00 | 0.00 | 32 | 1016.9 |
| 20260507011924 | 52 | 227 | 5.2 | 11.3 | 0.00 | 0.00 | 0.00 | 31 | 1016.9 |
| 20260507011438 | 52 | 240 | 7.0 | 11.3 | 0.00 | 0.00 | 0.00 | 31 | 1016.9 |
| 20260507011023 | 52 | 280 | 6.1 | 13.9 | 0.00 | 0.00 | 0.00 | 31 | 1016.9 |
| 20260507010544 | 52 | 237 | 6.1 | 13.9 | 0.00 | 0.00 | 0.00 | 30 | 1016.9 |
| 20260507010125 | 52 | 234 | 6.1 | 12.2 | 0.00 | 0.00 | 0.00 | 31 | 1016.9 |
| 20260507005723 | 52 | 248 | 7.8 | 12.2 | 0.00 | 0.00 | 0.00 | 30 | 1016.9 |
| 20260507005222 | 53 | 254 | 10.4 | 12.2 | 0.00 | 0.00 | 0.00 | 29 | 1016.9 |
| 20260507004821 | 53 | 240 | 7.0 | 13.9 | 0.00 | 0.00 | 0.00 | 29 | 1016.9 |
| 20260507004321 | 54 | 251 | 10.4 | 14.8 | 0.00 | 0.00 | 0.00 | 29 | 1017.3 |
| 20260507003823 | 54 | 266 | 10.4 | 14.8 | 0.00 | 0.00 | 0.00 | 27 | 1017.3 |
| 20260507003342 | 54 | 286 | 13.0 | 14.8 | 0.00 | 0.00 | 0.00 | 28 | 1017.3 |
| 20260507002920 | 54 | 233 | 7.0 | 14.8 | 0.00 | 0.00 | 0.00 | 27 | 1017.3 |
| 20260507002423 | 54 | 236 | 12.2 | 16.5 | 0.00 | 0.00 | 0.00 | 27 | 1017.3 |
| 20260507002021 | 54 | 257 | 9.6 | 16.5 | 0.00 | 0.00 | 0.00 | 27 | 1017.3 |
| 20260507001523 | 54 | 251 | 8.7 | 14.8 | 0.00 | 0.00 | 0.00 | 27 | 1017.3 |
| 20260507001023 | 54 | 256 | 11.3 | 16.5 | 0.00 | 0.00 | 0.00 | 25 | 1017.3 |
| 20260507000522 | 54 | 252 | 8.7 | 16.5 | 0.00 | 0.00 | 0.00 | 27 | 1017.3 |
| 20260507000120 | 54 | 221 | 4.3 | 11.3 | 0.00 | 0.00 | 0.00 | 27 | 1017.3 |
| 20260506235619 | 55 | 244 | 6.1 | 18.2 | 0.00 | 0.00 | 0.00 | 27 | 1017.6 |
| 20260506235120 | 54 | 230 | 7.0 | 18.2 | 0.00 | 0.00 | 0.00 | 27 | 1017.3 |
| 20260506234641 | 55 | 274 | 13.0 | 15.6 | 0.00 | 0.00 | 0.00 | 26 | 1017.6 |
| 20260506234139 | 55 | 254 | 10.4 | 14.8 | 0.00 | 0.00 | 0.00 | 27 | 1017.6 |
| 20260506233721 | 55 | 290 | 10.4 | 13.0 | 0.00 | 0.00 | 0.00 | 26 | 1017.6 |
| 20260506233318 | 55 | 270 | 7.0 | 11.3 | 0.00 | 0.00 | 0.00 | 25 | 1017.6 |
| 20260506232820 | 55 | 248 | 6.1 | 16.5 | 0.00 | 0.00 | 0.00 | 27 | 1017.6 |
| 20260506232319 | 54 | 240 | 5.2 | 17.4 | 0.00 | 0.00 | 0.00 | 26 | 1017.6 |
| 20260506231837 | 54 | 243 | 7.8 | 17.4 | 0.00 | 0.00 | 0.00 | 26 | 1017.9 |
| 20260506231341 | 54 | 242 | 9.6 | 17.4 | 0.00 | 0.00 | 0.00 | 25 | 1017.9 |
| 20260506230940 | 55 | 252 | 12.2 | 17.4 | 0.00 | 0.00 | 0.00 | 25 | 1017.9 |
| 20260506230519 | 55 | 247 | 9.6 | 16.5 | 0.00 | 0.00 | 0.00 | 25 | 1017.9 |
| 20260506230019 | 54 | 257 | 14.8 | 15.6 | 0.00 | 0.00 | 0.00 | 25 | 1017.9 |
| 20260506225618 | 54 | 279 | 9.6 | 18.2 | 0.00 | 0.00 | 0.00 | 25 | 1017.9 |
| 20260506225137 | 55 | 306 | 9.6 | 20.9 | 0.00 | 0.00 | 0.00 | 25 | 1018.3 |
| 20260506224717 | 55 | 283 | 10.4 | 20.9 | 0.00 | 0.00 | 0.00 | 24 | 1018.3 |
| 20260506224239 | 54 | 259 | 11.3 | 13.0 | 0.00 | 0.00 | 0.00 | 26 | 1017.9 |
| 20260506223816 | 54 | 265 | 7.8 | 16.5 | 0.00 | 0.00 | 0.00 | 27 | 1018.3 |
| 20260506223342 | 53 | 261 | 10.4 | 20.9 | 0.00 | 0.00 | 0.00 | 26 | 1018.6 |
| 20260506222917 | 54 | 243 | 13.0 | 20.9 | 0.00 | 0.00 | 0.00 | 26 | 1018.6 |
| 20260506222436 | 54 | 237 | 13.9 | 13.9 | 0.00 | 0.00 | 0.00 | 27 | 1018.6 |
| 20260506222017 | 53 | 259 | 7.0 | 13.9 | 0.00 | 0.00 | 0.00 | 26 | 1018.6 |
| 20260506221520 | 54 | 260 | 8.7 | 17.4 | 0.00 | 0.00 | 0.00 | 26 | 1018.6 |
| 20260506221116 | 54 | 228 | 8.7 | 17.4 | 0.00 | 0.00 | 0.00 | 25 | 1018.6 |
| 20260506220643 | 54 | 288 | 13.9 | 15.6 | 0.00 | 0.00 | 0.00 | 27 | 1018.6 |
| 20260506220215 | 54 | 246 | 8.7 | 18.2 | 0.00 | 0.00 | 0.00 | 25 | 1018.6 |
| 20260506215715 | 54 | 249 | 10.4 | 18.2 | 0.00 | 0.00 | 0.00 | 25 | 1018.6 |
| 20260506215315 | 55 | 238 | 13.0 | 17.4 | 0.00 | 0.00 | 0.00 | 25 | 1018.6 |
| 20260506214839 | 55 | 247 | 13.0 | 17.4 | 0.00 | 0.00 | 0.00 | 25 | 1018.6 |
| 20260506214415 | 54 | 269 | 13.0 | 18.2 | 0.00 | 0.00 | 0.00 | 26 | 1019.0 |
| 20260506213945 | 54 | 301 | 6.1 | 20.0 | 0.00 | 0.00 | 0.00 | 24 | 1019.0 |
| 20260506213514 | 54 | 271 | 7.8 | 20.0 | 0.00 | 0.00 | 0.00 | 25 | 1019.3 |
| 20260506213043 | 54 | 259 | 10.4 | 16.5 | 0.00 | 0.00 | 0.00 | 25 | 1019.0 |
| 20260506212614 | 54 | 270 | 5.2 | 16.5 | 0.00 | 0.00 | 0.00 | 24 | 1019.3 |
| 20260506212138 | 54 | 252 | 8.7 | 16.5 | 0.00 | 0.00 | 0.00 | 25 | 1019.3 |
| 20260506211716 | 54 | 254 | 12.2 | 15.6 | 0.00 | 0.00 | 0.00 | 26 | 1019.3 |
| 20260506211241 | 54 | 271 | 7.8 | 14.8 | 0.00 | 0.00 | 0.00 | 25 | 1019.3 |
| 20260506210816 | 54 | 257 | 8.7 | 16.5 | 0.00 | 0.00 | 0.00 | 24 | 1019.6 |
| 20260506210338 | 55 | 263 | 9.6 | 16.5 | 0.00 | 0.00 | 0.00 | 26 | 1019.6 |
| 20260506205913 | 55 | 250 | 13.0 | 16.5 | 0.00 | 0.00 | 0.00 | 25 | 1019.6 |
| 20260506205443 | 55 | 240 | 13.0 | 18.2 | 0.00 | 0.00 | 0.00 | 26 | 1019.6 |
| 20260506205013 | 54 | 249 | 10.4 | 18.2 | 0.00 | 0.00 | 0.00 | 27 | 1019.6 |
| 20260506204542 | 53 | 212 | 2.6 | 13.9 | 0.00 | 0.00 | 0.00 | 27 | 1020.0 |
| 20260506204115 | 53 | 290 | 9.6 | 15.6 | 0.00 | 0.00 | 0.00 | 26 | 1020.0 |
| 20260506203643 | 53 | 267 | 8.7 | 18.2 | 0.00 | 0.00 | 0.00 | 26 | 1020.0 |
| 20260506203213 | 54 | 246 | 15.6 | 18.2 | 0.00 | 0.00 | 0.00 | 26 | 1020.3 |
| 20260506202739 | 54 | 298 | 10.4 | 16.5 | 0.00 | 0.00 | 0.00 | 26 | 1020.3 |
| 20260506202311 | 53 | 297 | 8.7 | 13.9 | 0.00 | 0.00 | 0.00 | 28 | 1020.3 |
| 20260506201837 | 52 | 278 | 2.6 | 17.4 | 0.00 | 0.00 | 0.00 | 25 | 1020.3 |
| 20260506201341 | 52 | 231 | 10.4 | 17.4 | 0.00 | 0.00 | 0.00 | 27 | 1020.7 |
| 20260506200941 | 51 | 261 | 13.0 | 14.8 | 0.00 | 0.00 | 0.00 | 28 | 1020.3 |
| 20260506200514 | 51 | 261 | 9.6 | 13.0 | 0.00 | 0.00 | 0.00 | 28 | 1020.7 |
| 20260506200038 | 52 | 292 | 8.7 | 18.2 | 0.00 | 0.00 | 0.00 | 27 | 1020.7 |
| 20260506195613 | 52 | 293 | 7.0 | 18.2 | 0.00 | 0.00 | 0.00 | 27 | 1020.7 |
| 20260506195141 | 51 | 269 | 12.2 | 15.6 | 0.00 | 0.00 | 0.00 | 29 | 1020.7 |
| 20260506194713 | 52 | 244 | 4.3 | 14.8 | 0.00 | 0.00 | 0.00 | 26 | 1020.7 |
| 20260506194240 | 52 | 304 | 8.7 | 14.8 | 0.00 | 0.00 | 0.00 | 28 | 1021.0 |
| 20260506193811 | 52 | 295 | 13.0 | 18.2 | 0.00 | 0.00 | 0.00 | 28 | 1020.7 |
| 20260506193344 | 51 | 250 | 11.3 | 18.2 | 0.00 | 0.00 | 0.00 | 28 | 1021.0 |
| 20260506192911 | 51 | 246 | 8.7 | 13.0 | 0.00 | 0.00 | 0.00 | 29 | 1021.0 |
| 20260506192440 | 51 | 319 | 4.3 | 15.6 | 0.00 | 0.00 | 0.00 | 28 | 1021.0 |
| 20260506192014 | 50 | 254 | 6.1 | 17.4 | 0.00 | 0.00 | 0.00 | 28 | 1021.0 |
| 20260506191512 | 50 | 307 | 6.1 | 17.4 | 0.00 | 0.00 | 0.00 | 29 | 1021.0 |
| 20260506191115 | 51 | 279 | 6.1 | 10.4 | 0.00 | 0.00 | 0.00 | 30 | 1021.3 |
| 20260506190646 | 50 | 196 | 4.3 | 13.0 | 0.00 | 0.00 | 0.00 | 31 | 1021.3 |
| 20260506190215 | 50 | 218 | 9.6 | 13.9 | 0.00 | 0.00 | 0.00 | 31 | 1021.3 |
| 20260506185742 | 50 | 218 | 9.6 | 13.9 | 0.00 | 0.00 | 0.00 | 31 | 1021.3 |
| 20260506185310 | 50 | 311 | 5.2 | 14.8 | 0.00 | 0.00 | 0.00 | 31 | 1021.3 |
| 20260506184837 | 49 | 199 | 4.3 | 14.8 | 0.00 | 0.00 | 0.00 | 33 | 1021.7 |
| 20260506184412 | 49 | 279 | 9.6 | 14.8 | 0.00 | 0.00 | 0.00 | 33 | 1021.7 |
| 20260506183840 | 49 | 250 | 11.3 | 13.0 | 0.00 | 0.00 | 0.00 | 34 | 1021.7 |
| 20260506183412 | 49 | 324 | 5.2 | 11.3 | 0.00 | 0.00 | 0.00 | 33 | 1021.7 |
| 20260506182914 | 48 | 277 | 1.7 | 14.8 | 0.00 | 0.00 | 0.00 | 35 | 1022.0 |
| 20260506182512 | 48 | 244 | 8.7 | 14.8 | 0.00 | 0.00 | 0.00 | 36 | 1022.0 |
| 20260506182037 | 48 | 286 | 6.1 | 16.5 | 0.00 | 0.00 | 0.00 | 34 | 1022.0 |
| 20260506181613 | 48 | 319 | 8.7 | 16.5 | 0.00 | 0.00 | 0.00 | 34 | 1022.0 |
| 20260506181141 | 48 | 274 | 7.8 | 15.6 | 0.00 | 0.00 | 0.00 | 35 | 1022.0 |
| 20260506180710 | 48 | 290 | 8.7 | 13.0 | 0.00 | 0.00 | 0.00 | 36 | 1022.0 |
| 20260506180241 | 47 | 234 | 4.3 | 10.4 | 0.00 | 0.00 | 0.00 | 37 | 1022.4 |
| 20260506175812 | 47 | 267 | 3.5 | 13.0 | 0.00 | 0.00 | 0.00 | 36 | 1022.0 |
| 20260506175342 | 47 | 304 | 7.8 | 13.0 | 0.00 | 0.00 | 0.00 | 37 | 1022.4 |
| 20260506174911 | 47 | 275 | 9.6 | 15.6 | 0.00 | 0.00 | 0.00 | 36 | 1022.4 |
| 20260506174415 | 47 | 278 | 12.2 | 15.6 | 0.00 | 0.00 | 0.00 | 36 | 1022.7 |
| 20260506174014 | 46 | 252 | 11.3 | 13.9 | 0.00 | 0.00 | 0.00 | 38 | 1022.7 |
| 20260506173538 | 46 | 316 | 4.3 | 13.0 | 0.00 | 0.00 | 0.00 | 42 | 1022.7 |
| 20260506173113 | 45 | 294 | 4.3 | 13.0 | 0.00 | 0.00 | 0.00 | 42 | 1022.7 |
| 20260506172623 | 45 | 292 | 11.3 | 14.8 | 0.00 | 0.00 | 0.00 | 40 | 1022.7 |
| 20260506172123 | 46 | 304 | 8.7 | 14.8 | 0.00 | 0.00 | 0.00 | 41 | 1022.7 |
| 20260506171646 | 46 | 294 | 10.4 | 13.9 | 0.00 | 0.00 | 0.00 | 43 | 1022.7 |
| 20260506171137 | 45 | 273 | 6.1 | 9.6 | 0.00 | 0.00 | 0.00 | 42 | 1022.7 |
| 20260506170721 | 45 | 301 | 4.3 | 13.9 | 0.00 | 0.00 | 0.00 | 43 | 1022.7 |
| 20260506170243 | 45 | 274 | 7.0 | 13.9 | 0.00 | 0.00 | 0.00 | 43 | 1022.7 |
| 20260506165823 | 44 | 281 | 11.3 | 12.2 | 0.00 | 0.00 | 0.00 | 42 | 1022.7 |
| 20260506165340 | 44 | 255 | 6.1 | 12.2 | 0.00 | 0.00 | 0.00 | 43 | 1022.7 |
| 20260506164920 | 44 | 284 | 6.1 | 12.2 | 0.00 | 0.00 | 0.00 | 42 | 1022.7 |
| 20260506164425 | 44 | 292 | 11.3 | 13.0 | 0.00 | 0.00 | 0.00 | 41 | 1023.0 |
| 20260506163925 | 44 | 271 | 5.2 | 13.0 | 0.00 | 0.00 | 0.00 | 44 | 1023.0 |
| 20260506163443 | 43 | 250 | 6.1 | 11.3 | 0.00 | 0.00 | 0.00 | 44 | 1022.7 |
| 20260506163021 | 43 | 5 | 4.3 | 11.3 | 0.00 | 0.00 | 0.00 | 44 | 1022.7 |
| 20260506162521 | 43 | 311 | 4.3 | 12.2 | 0.00 | 0.00 | 0.00 | 45 | 1023.0 |
| 20260506162121 | 43 | 294 | 7.0 | 12.2 | 0.00 | 0.00 | 0.00 | 43 | 1023.0 |
| 20260506161642 | 43 | 325 | 3.5 | 10.4 | 0.00 | 0.00 | 0.00 | 45 | 1023.0 |
| 20260506161137 | 42 | 360 | 5.2 | 10.4 | 0.00 | 0.00 | 0.00 | 45 | 1023.0 |
| 20260506160719 | 42 | 298 | 1.7 | 11.3 | 0.00 | 0.00 | 0.00 | 46 | 1023.0 |
| 20260506160220 | 42 | 285 | 6.1 | 12.2 | 0.00 | 0.00 | 0.00 | 46 | 1023.0 |
| 20260506155719 | 42 | 261 | 7.0 | 12.2 | 0.00 | 0.00 | 0.00 | 48 | 1023.0 |
| 20260506155235 | 42 | 290 | 2.6 | 11.3 | 0.00 | 0.00 | 0.00 | 47 | 1023.0 |
| 20260506154824 | 41 | 257 | 6.1 | 12.2 | 0.00 | 0.00 | 0.00 | 48 | 1023.0 |
| 20260506154320 | 41 | 255 | 7.0 | 12.2 | 0.00 | 0.00 | 0.00 | 50 | 1023.0 |